This is the latest recevied weather packets stored in our database for station/object AE5TC. If no packets are shown the sender has not sent any weather packets the latest 10 day(s).
| Time | Temp. | Humidity | Pressure | Rain* | Wind** | Luminosity | Snow |
|---|---|---|---|---|---|---|---|
| 1777637078 | 20° C | 99% | 1011.8 hPa | 0 mm | - | 46 W/m² | - |
| 1777636774 | 20° C | 99% | 1011.4 hPa | 0 mm | - | 39 W/m² | - |
| 1777636471 | 20° C | 99% | 1011.4 hPa | 0 mm | - | 38 W/m² | - |
| 1777636167 | 20° C | 99% | 1011.2 hPa | 0 mm | - | 37 W/m² | - |
| 1777635861 | 20° C | 99% | 1011.1 hPa | 0 mm | - | 26 W/m² | - |
| 1777635558 | 20° C | 99% | 1010.8 hPa | 0 mm | - | 20 W/m² | - |
| 1777635255 | 19.44° C | 99% | 1011.1 hPa | 0 mm | - | 24 W/m² | - |
| 1777634951 | 19.44° C | 99% | 1010.7 hPa | 0 mm | - | 23 W/m² | - |
| 1777634649 | 19.44° C | 99% | 1011 hPa | 0 mm | - | 18 W/m² | - |
| 1777634346 | 19.44° C | 99% | 1010.9 hPa | 0 mm | - | 12 W/m² | - |
| 1777634042 | 19.44° C | 99% | 1011 hPa | 0 mm | - | 10 W/m² | - |
| 1777633739 | 19.44° C | 99% | 1010.8 hPa | 0 mm | - | 7 W/m² | - |
| 1777633437 | 19.44° C | 99% | 1010.7 hPa | 0 mm | - | 4 W/m² | - |
| 1777633134 | 19.44° C | 99% | 1010.7 hPa | 0 mm | - | 3 W/m² | - |
| 1777632830 | 19.44° C | 99% | 1010.7 hPa | 0 mm | - | 2 W/m² | - |
| 1777632526 | 19.44° C | 99% | 1010.5 hPa | 0 mm | - | 1 W/m² | - |
| 1777632224 | 19.44° C | 99% | 1010.6 hPa | 0 mm | - | 0 W/m² | - |
| 1777631921 | 20° C | 99% | 1010.6 hPa | 0 mm | - | 0 W/m² | - |
| 1777631620 | 20° C | 99% | 1010.8 hPa | 0 mm | - | 0 W/m² | - |
| 1777631316 | 20° C | 99% | 1010.4 hPa | 0 mm | - | 0 W/m² | - |
| 1777631013 | 20° C | 99% | 1010.6 hPa | 0 mm | - | 0 W/m² | - |
| 1777630709 | 20° C | 99% | 1010.4 hPa | 0 mm | - | 0 W/m² | - |
| 1777630406 | 20° C | 99% | 1010.4 hPa | 0 mm | - | 0 W/m² | - |
| 1777630104 | 20° C | 99% | 1010.4 hPa | 0 mm | - | 0 W/m² | - |
| 1777629801 | 20° C | 99% | 1010.1 hPa | 0 mm | - | 0 W/m² | - |
* Rain latest hour (hover to see other rain measurements)
** Current wind speed in m/s (hover to see current wind gust speed)